Regional Weather Roundup
Issued by NWS Sioux Falls, SD

Home | Current Version | Previous Version | Graphics & Text | Print | Product List | Glossary Off
Versions: 1 2 3 4 5 6 7 8 9 10 11 12 13 14 15 16 17 18 19 20 21 22 23 24 25 26 27 28 29 30 31 32 33 34 35 36 37 38 39 40 41 42 43 44 45 46 47 48 49 50

000
ASUS43 KFSD 221310
RWRFSD

WEATHER ROUNDUP FOR SE SOUTH DAKOTA/SW MINNESOTA/NW IOWA
NATIONAL WEATHER SERVICE SIOUX FALLS SD
800 AM CDT MON MAY 22 2017

NOTE: "FAIR" INDICATES FEW OR NO CLOUDS BELOW 12,000 FEET WITH NO
SIGNIFICANT WEATHER AND OR OBSTRUCTIONS TO VISIBILITY.


SDZ038>040-050-052>070-221400-
SOUTHEAST SOUTH DAKOTA

CITY           SKY/WX    TMP DP  RH WIND       PRES   REMARKS
BROOKINGS      SUNNY     48  44  86 S3        29.88F
CHAMBERLAIN    PTSUNNY   52  46  82 W7        29.93S
HURON          CLOUDY    50  45  83 W8        29.89R
MADISON        FAIR      48  48 100 W8        29.89R
MITCHELL       SUNNY     51  46  83 W10       29.90S
SIOUX FALLS    MOSUNNY   53  47  79 W5        29.89S
WINNER         FAIR      53  43  68 W9        29.96R
YANKTON          N/A     55  46  71 S12       29.93S
$$

MNZ071-072-080-081-089-090-097-098-221400-
SOUTHWEST MINNESOTA

CITY           SKY/WX    TMP DP  RH WIND       PRES   REMARKS
FAIRMONT       CLOUDY    51  45  79 SW6       29.89S
JACKSON        CLOUDY    50  43  76 SW7       29.90R
LUVERNE        MOSUNNY   48  45  87 SW5       29.90S
MARSHALL       SUNNY     49  44  83 NW6       29.89R
MONTEVIDEO     SUNNY     50  45  81 CALM      29.89S
PIPESTONE      SUNNY     50  43  76 CALM      29.88S
REDWOOD FALLS  SUNNY     49  43  80 CALM      29.88S
TRACY          SUNNY     49  45  86 NW7       29.89S
WINDOM         SUNNY     52  45  76 W7        29.88S
WORTHINGTON    CLOUDY    52  46  80 SW12      29.89S
$$

IAZ001>003-012>014-020>022-031-032-NEZ013-014-SDZ071-221400-
NORTHWEST IOWA

CITY           SKY/WX    TMP DP  RH WIND       PRES   REMARKS
CHEROKEE       MOSUNNY   54  49  81 SW5       29.91S
DENISON        MOSUNNY   55  48  76 SW6       29.94F
ESTHERVILLE    CLOUDY    48  46  93 SW7       29.88F
LE MARS        MOSUNNY   55  48  76 W6        29.92F
ORANGE CITY    MOSUNNY   54  48  82 W8        29.91S
SHELDON        PTSUNNY   52  46  82 SW5         N/A
SIOUX CITY     SUNNY     56  48  74 NW9       29.93F
SPENCER        CLOUDY    52  47  83 W6        29.90S
STORM LAKE     SUNNY     54  46  76 SW8       29.91F
$$

ABBREVIATIONS USED IN REMARKS
   TC - TEMPERATURE IN CELSIUS
  WCI - WIND CHILL INDEX
   HX - HEAT INDEX
  VSB - VISIBILITY





USA.gov is the U.S. government's official web portal to all federal, state and local government web resources and services.